Lid_Strength_Index
-1 -1 1 2 7 7 10 9 8 8 7 5 5 5 6 5 6 8 1 0 -0 -0 -1 -1 -1 -1 -1 -2 -2 -2 -2 -2 -2 -2 -2 -2 -2 -2 -2 -3 -2 -2 -2 -2 -2 -2 -1 -1 -1
-1 2 1 4 9 12 11 8 9 8 7 5 5 6 5 6 3 3 3 0 -0 -0 -1 -1 -1 -1 -1 -1 -2 -2 -2 -2 -2 -2 -2 -2 -2 -2 -2 -2 -2 -2 -2 -2 -2 -1 -1 -1 -1
2 3 4 6 10 12 10 9 9 8 6 6 5 5 5 5 3 2 1 0 -0 -0 -1 -1 -1 -1 -1 -1 -1 -2 -2 -2 -2 -2 -2 -2 -2 -2 -2 -2 -2 -2 -2 -2 -2 -1 -1 -1 -1
3 3 4 9 11 9 8 6 7 7 7 6 5 6 4 2 2 1 0 -0 -0 -0 -1 -1 -1 -1 -1 -1 -1 -1 -2 -2 -2 -2 -2 -2 -2 -2 -2 -2 -2 -2 -2 -2 -1 -1 -1 -1 -1
3 4 10 10 10 8 6 7 7 9 7 7 6 6 5 2 1 1 0 0 0 0 -1 -1 -1 -1 -1 -1 -1 -1 -1 -1 -2 -2 -2 -2 -2 -2 -2 -2 -2 -2 -2 -2 -1 -1 -1 -1 -1
6 6 11 13 11 8 6 7 7 7 7 6 6 5 4 2 2 1 0 0 -0 0 -0 -1 -1 -1 -1 -1 -1 -1 -1 -1 -1 -2 -2 -2 -2 -2 -2 -2 -2 -2 -2 -2 -1 -1 -1 -1 -1
8 8 11 11 10 9 7 7 8 8 7 6 5 6 4 3 1 1 0 -0 -0 -0 -0 -0 -1 -1 -1 -1 -1 -1 -1 -1 -1 -1 -1 -2 -2 -2 -2 -2 -2 -1 -1 -1 -1 -1 -1 -1 -1
6 7 11 11 11 9 6 7 6 7 6 5 5 6 5 3 1 1 0 0 0 -0 -0 -0 -1 -1 -1 -1 -1 -1 -1 -1 -1 -1 -1 -1 -2 -2 -2 -1 -2 -1 -1 -1 -1 -1 -1 -1 -1
4 9 11 11 10 8 5 7 6 5 6 6 5 4 4 2 1 2 2 1 1 1 0 -0 -0 -0 -1 -1 -1 -1 -1 -1 -1 -1 -1 -1 -1 -2 -2 -2 -1 -1 -1 -1 -1 -1 -1 -1 -1
6 9 10 8 8 7 6 6 6 6 6 6 5 4 3 2 2 3 3 2 2 1 1 -0 -0 -0 -0 -0 -1 -1 -1 -1 -1 -1 -2 -1 -2 -2 -1 -2 -1 -1 -2 -1 -1 -1 -1 -1 -1
6 9 7 7 7 6 6 6 5 7 8 6 6 5 4 3 2 2 2 2 2 1 1 0 -0 -1 -0 -0 -0 -1 -1 -1 -1 -1 -1 -2 -1 -1 -1 -1 -1 -1 -1 -1 -1 -1 -1 -1 -1
9 7 6 6 6 6 6 5 5 5 6 5 4 4 4 3 3 3 2 2 2 1 1 0 -0 -0 -0 -0 -0 -0 -0 -0 -0 -1 -1 -1 -0 -0 -1 -0 -1 -1 -1 -1 -1 -1 -1 -1 -1
8 8 6 5 5 6 5 6 6 6 4 3 3 3 3 3 3 2 1 1 1 1 1 0 -0 -0 -0 -0 -0 -0 -0 -0 -1 -1 -1 -1 -0 -0 -0 -0 -1 -1 -1 -1 -0 -1 -1 -1 -1
8 7 7 6 6 6 7 6 6 5 4 4 4 4 4 4 3 2 2 2 1 1 1 -0 -0 -0 -0 0 -0 0 -0 -0 -0 -0 -1 -1 -1 -0 -0 -0 -0 -1 -1 -1 -1 -0 -1 -1 -1
8 10 9 8 6 7 5 8 7 5 4 4 5 5 4 4 3 3 2 1 1 1 0 0 -0 -1 0 0 0 0 -0 -0 -0 -0 -1 -1 -1 -1 -0 -0 -0 -0 -1 -1 -1 -1 -1 -0 -1
9 10 13 9 9 9 7 11 7 5 5 5 4 4 5 4 3 3 2 1 1 1 0 -0 0 0 -0 -0 0 0 -0 -0 -0 -0 -1 -1 -1 -1 -0 -0 -0 -1 -1 -1 -0 0 0 0 0
10 12 12 11 9 9 9 10 7 6 6 6 5 4 4 4 3 2 2 2 1 0 0 1 -0 -0 -0 -0 -0 -0 -0 -0 -0 -0 -0 -1 -1 -1 -0 -0 -0 -1 -0 -0 0 -0 0 1 1
13 12 11 11 10 10 10 10 8 7 7 7 6 5 5 5 4 3 3 2 1 0 0 0 0 -0 -0 0 0 0 0 0 -0 -0 -0 -1 -0 -1 -0 -0 -1 -1 -0 0 0 0 0 0 1
10 11 11 9 7 9 10 10 9 7 7 7 6 6 5 5 4 3 3 1 1 1 1 0 0 0 1 1 2 2 2 1 1 0 -0 -0 -0 -1 -0 -0 -0 -0 0 0 -0 0 1 1 0
10 12 12 10 9 9 9 9 8 8 8 7 7 7 6 6 5 3 2 2 1 1 1 0 1 0 1 1 1 1 1 1 0 0 -0 -0 -0 -1 -0 -0 0 -0 0 0 0 0 1 1 1
11 12 12 11 10 9 10 11 11 9 8 8 7 7 6 6 6 4 3 2 1 1 1 1 1 1 1 0 1 1 1 1 1 1 1 0 -0 -0 -0 -0 -0 -0 0 1 0 0 1 2 1
13 10 10 11 12 13 10 14 11 10 9 9 8 8 7 6 5 4 3 3 2 2 1 1 1 1 1 0 1 1 2 3 2 1 1 0 -0 -0 -0 -0 -0 -0 0 0 0 0 1 1 3
11 9 10 10 11 11 12 14 12 10 11 10 8 7 6 5 5 5 4 3 3 2 1 1 1 1 1 1 1 1 2 2 1 1 1 0 -0 -0 -0 -0 -0 -0 0 0 0 0 0 1 2
7 9 10 10 11 15 13 13 13 11 10 8 7 6 6 5 5 5 4 4 3 2 1 2 2 2 1 1 1 1 2 2 2 2 2 1 1 0 -0 -0 -0 -0 -0 0 0 -0 0 1 1
8 10 14 16 16 18 12 13 13 9 8 8 8 7 6 5 5 5 4 4 2 2 2 2 2 2 1 1 1 1 1 1 1 1 2 1 1 1 0 -0 -0 0 -0 -0 -0 0 0 0 1
9 10 13 18 17 17 13 15 13 8 7 7 7 6 6 5 4 4 4 4 2 2 2 2 2 2 2 1 1 1 1 1 1 1 1 1 1 1 -0 -0 -0 -0 -0 -0 -0 0 0 0 1
10 12 8 12 12 15 14 13 10 9 8 7 7 7 6 5 4 4 4 3 3 3 3 2 2 2 2 1 1 1 1 1 1 1 0 1 0 0 0 -0 0 -0 -0 -0 -0 0 0 0 0
8 7 12 12 16 18 15 15 13 11 9 8 8 7 6 4 4 4 4 3 3 3 2 2 2 2 2 1 1 1 1 1 1 1 1 1 0 0 0 0 0 0 -0 -0 -0 0 -0 0 0
9 11 10 10 11 15 16 14 9 9 8 9 8 7 6 4 5 5 4 4 3 3 2 2 2 2 2 1 1 1 1 1 0 1 0 0 0 0 0 0 0 0 0 -0 0 0 0 1 1
9 10 11 13 14 13 14 14 8 8 8 7 7 7 6 4 4 5 5 4 4 3 3 3 2 2 2 1 1 1 1 1 1 1 1 0 0 0 0 0 0 0 0 0 0 1 1 1 1